Terminal Aerodrome Forecast
Issued by NWS

Home | Current Version | Previous Version | Text Only | Print | Product List | Glossary On
Versions: 1 2 3 4 5 6 7 8 9 10 11 12 13 14 15
000
FTUS42 TJSJ 250545
TAFJBQ
TAF
TJBQ 250545Z 2506/2606 12006KT P6SM FEW025
     FM251300 09012KT P6SM FEW025 SCT070
     FM251600 08015G22KT P6SM VCTS SCT025CB BKN030
     FM252200 09008KT P6SM FEW025 SCT050 SCT100
      AMD NOT SKED TIL 251100=

USA.gov is the U.S. government's official web portal to all federal, state and local government web resources and services.